When you browse on this site, cookies collect data to enhance your experience and personalize the content and advertising you see.
Visit our Privacy Policy to learn more. By continuing to use the site, you agree to this use of cookies and data.
  • In Czech Republic
  • List of Countries
  • For 7 days
  • Water Temperature
  • Satellite Maps
  • Weather Map
  • Weather Widgets
  • user-avatar
    Login

    Hourly Weather Idzhewan

    Today, 23 May, Thursday

    Time Temperature Precipitation Wind Pressure Humidity
    00:00 +14°C° 0 mm 2 mps 694 mmHg 88%
    01:00 +14°C° 0 mm 2 mps 693 mmHg 86%
    02:00 +14°C° 0 mm 2 mps 693 mmHg 85%
    03:00 +13°C° 0 mm 3 mps 692 mmHg 81%
    04:00 +13°C° 0 mm 3 mps 692 mmHg 79%
    05:00 +15°C° 0 mm 2 mps 692 mmHg 78%
    06:00 +15°C° 0 mm 2 mps 692 mmHg 77%
    07:00 +17°C° 0 mm 2 mps 692 mmHg 70%
    08:00 +20°C° 0 mm 2 mps 693 mmHg 63%
    09:00 +23°C° 0 mm 2 mps 693 mmHg 56%
    10:00 +23°C° 0.6 mm 2 mps 692 mmHg 58%
    11:00 +23°C° 0.6 mm 2 mps 692 mmHg 60%
    12:00 +23°C° 0.6 mm 2 mps 692 mmHg 62%
    13:00 +23°C° 0.8 mm 2 mps 692 mmHg 64%
    14:00 +23°C° 0.8 mm 2 mps 691 mmHg 65%
    15:00 +21°C° 0 mm 2 mps 692 mmHg 68%
    16:00 +21°C° 0.3 mm 2 mps 691 mmHg 71%
    17:00 +22°C° 0.3 mm 1 mps 691 mmHg 73%
    18:00 +21°C° 0.3 mm 1 mps 691 mmHg 75%
    19:00 +20°C° 0.2 mm 1 mps 692 mmHg 79%
    20:00 +18°C° 0.2 mm 1 mps 692 mmHg 82%
    21:00 +16°C° 0.2 mm 1 mps 692 mmHg 86%
    22:00 +15°C° 0 mm 1 mps 692 mmHg 86%
    23:00 +15°C° 0 mm 1 mps 692 mmHg 86%

    Tomorrow, 24 May, Friday

    Time Temperature Precipitation Wind Pressure Humidity
    00:00 +15°C° 0 mm 2 mps 692 mmHg 86%
    01:00 +15°C° 0 mm 1 mps 692 mmHg 86%
    02:00 +15°C° 0 mm 1 mps 692 mmHg 86%
    03:00 +15°C° 0 mm 1 mps 692 mmHg 85%
    04:00 +15°C° 0 mm 1 mps 692 mmHg 84%
    05:00 +16°C° 0 mm 1 mps 692 mmHg 83%
    06:00 +16°C° 0 mm 1 mps 693 mmHg 82%
    07:00 +19°C° 0 mm 1 mps 693 mmHg 76%
    08:00 +21°C° 0 mm 1 mps 693 mmHg 70%
    09:00 +23°C° 0 mm 2 mps 693 mmHg 63%
    10:00 +24°C° 0.1 mm 2 mps 693 mmHg 61%
    11:00 +25°C° 0.1 mm 2 mps 692 mmHg 59%
    12:00 +26°C° 0.1 mm 2 mps 692 mmHg 56%
    13:00 +26°C° 0.8 mm 2 mps 692 mmHg 59%
    14:00 +26°C° 0.8 mm 2 mps 692 mmHg 61%
    15:00 +26°C° 0.8 mm 2 mps 691 mmHg 63%
    16:00 +25°C° 1 mm 1 mps 692 mmHg 68%
    17:00 +24°C° 1 mm 1 mps 692 mmHg 72%
    18:00 +21°C° 1 mm 0 mps 692 mmHg 77%
    19:00 +22°C° 0.1 mm 1 mps 692 mmHg 78%
    20:00 +21°C° 0.1 mm 1 mps 692 mmHg 78%
    21:00 +18°C° 0.1 mm 2 mps 693 mmHg 79%
    22:00 +19°C° 0.2 mm 1 mps 693 mmHg 80%
    23:00 +18°C° 0.2 mm 1 mps 693 mmHg 82%

    Day after tomorrow, 25 May, Saturday

    Time Temperature Precipitation Wind Pressure Humidity
    00:00 +18°C° 0.2 mm 1 mps 693 mmHg 83%
    01:00 +16°C° 0.1 mm 1 mps 693 mmHg 83%
    02:00 +16°C° 0.1 mm 1 mps 693 mmHg 83%
    03:00 +16°C° 0.1 mm 1 mps 693 mmHg 83%
    04:00 +18°C° 0 mm 1 mps 693 mmHg 81%
    05:00 +18°C° 0 mm 1 mps 693 mmHg 79%
    06:00 +19°C° 0 mm 1 mps 694 mmHg 77%
    07:00 +21°C° 0 mm 1 mps 694 mmHg 71%
    08:00 +23°C° 0 mm 1 mps 694 mmHg 65%
    09:00 +25°C° 0 mm 2 mps 694 mmHg 58%
    10:00 +26°C° 0 mm 2 mps 693 mmHg 53%
    11:00 +28°C° 0 mm 2 mps 693 mmHg 49%
    12:00 +29°C° 0 mm 3 mps 693 mmHg 44%
    13:00 +29°C° 0 mm 3 mps 693 mmHg 45%
    14:00 +29°C° 0 mm 3 mps 693 mmHg 46%
    15:00 +29°C° 0 mm 3 mps 692 mmHg 48%
    16:00 +28°C° 0 mm 2 mps 692 mmHg 55%
    17:00 +27°C° 0 mm 2 mps 692 mmHg 63%
    18:00 +26°C° 0 mm 1 mps 691 mmHg 71%
    19:00 +24°C° 0.1 mm 2 mps 692 mmHg 71%
    20:00 +21°C° 0.1 mm 3 mps 692 mmHg 71%
    21:00 +20°C° 0.1 mm 3 mps 692 mmHg 71%
    22:00 +19°C° 0 mm 3 mps 692 mmHg 72%
    23:00 +18°C° 0 mm 2 mps 692 mmHg 72%

    26 May, Sunday

    Time Temperature Precipitation Wind Pressure Humidity
    00:00 +17°C° 0 mm 2 mps 692 mmHg 72%
    01:00 +17°C° 0 mm 2 mps 692 mmHg 74%
    02:00 +16°C° 0 mm 2 mps 692 mmHg 76%
    03:00 +16°C° 0 mm 2 mps 692 mmHg 78%
    04:00 +16°C° 0 mm 2 mps 692 mmHg 76%
    05:00 +17°C° 0 mm 2 mps 692 mmHg 75%
    06:00 +19°C° 0 mm 1 mps 692 mmHg 73%
    07:00 +21°C° 0 mm 1 mps 692 mmHg 69%
    08:00 +22°C° 0 mm 1 mps 692 mmHg 64%
    09:00 +24°C° 0 mm 1 mps 692 mmHg 60%
    10:00 +25°C° 0 mm 1 mps 692 mmHg 56%
    11:00 +27°C° 0 mm 2 mps 692 mmHg 51%
    12:00 +28°C° 0 mm 2 mps 692 mmHg 47%
    13:00 +28°C° 0 mm 2 mps 692 mmHg 47%
    14:00 +28°C° 0 mm 2 mps 692 mmHg 47%
    15:00 +29°C° 0 mm 3 mps 691 mmHg 47%
    16:00 +27°C° 0.5 mm 2 mps 691 mmHg 55%
    17:00 +25°C° 0.5 mm 2 mps 691 mmHg 63%
    18:00 +24°C° 0.5 mm 2 mps 691 mmHg 71%
    19:00 +21°C° 1.1 mm 2 mps 691 mmHg 78%
    20:00 +20°C° 1.1 mm 1 mps 692 mmHg 85%
    21:00 +18°C° 1.1 mm 1 mps 692 mmHg 92%
    22:00 +18°C° 0.8 mm 1 mps 693 mmHg 93%
    23:00 +16°C° 0.8 mm 1 mps 693 mmHg 94%

    27 May, Monday

    Time Temperature Precipitation Wind Pressure Humidity
    00:00 +16°C° 0.8 mm 2 mps 693 mmHg 94%
    01:00 +16°C° 0 mm 2 mps 693 mmHg 93%
    02:00 +16°C° 0 mm 2 mps 694 mmHg 92%
    03:00 +15°C° 0 mm 2 mps 694 mmHg 91%
    04:00 +16°C° 0 mm 1 mps 694 mmHg 90%
    05:00 +16°C° 0 mm 1 mps 694 mmHg 88%
    06:00 +16°C° 0 mm 1 mps 694 mmHg 87%
    07:00 +19°C° 0 mm 1 mps 694 mmHg 80%
    08:00 +20°C° 0 mm 2 mps 695 mmHg 72%
    09:00 +21°C° 0 mm 2 mps 695 mmHg 65%
    10:00 +23°C° 0.1 mm 2 mps 695 mmHg 63%
    11:00 +24°C° 0.1 mm 2 mps 695 mmHg 60%
    12:00 +25°C° 0.1 mm 2 mps 694 mmHg 57%
    13:00 +25°C° 0.4 mm 2 mps 694 mmHg 56%
    14:00 +26°C° 0.4 mm 2 mps 694 mmHg 55%
    15:00 +26°C° 0.4 mm 2 mps 694 mmHg 53%
    16:00 +25°C° 0.7 mm 2 mps 694 mmHg 58%
    17:00 +25°C° 0.7 mm 1 mps 694 mmHg 63%
    18:00 +24°C° 0.7 mm 1 mps 695 mmHg 68%
    19:00 +22°C° 0.1 mm 1 mps 695 mmHg 70%
    20:00 +20°C° 0.1 mm 1 mps 695 mmHg 71%
    21:00 +18°C° 0.1 mm 1 mps 696 mmHg 73%
    22:00 +18°C° 0 mm 1 mps 696 mmHg 74%
    23:00 +17°C° 0 mm 2 mps 696 mmHg 75%

    28 May, Tuesday

    Time Temperature Precipitation Wind Pressure Humidity
    00:00 +16°C° 0 mm 2 mps 696 mmHg 76%
    01:00 +16°C° 0 mm 2 mps 696 mmHg 77%
    02:00 +15°C° 0 mm 1 mps 696 mmHg 78%
    03:00 +15°C° 0 mm 1 mps 696 mmHg 80%
    04:00 +15°C° 0 mm 1 mps 696 mmHg 79%
    05:00 +16°C° 0 mm 1 mps 697 mmHg 78%
    06:00 +18°C° 0 mm 1 mps 697 mmHg 77%
    07:00 +19°C° 0 mm 1 mps 697 mmHg 72%
    08:00 +20°C° 0 mm 2 mps 697 mmHg 67%
    09:00 +21°C° 0 mm 2 mps 697 mmHg 62%
    10:00 +24°C° 0 mm 2 mps 697 mmHg 61%
    11:00 +25°C° 0 mm 2 mps 696 mmHg 60%
    12:00 +26°C° 0 mm 3 mps 696 mmHg 58%
    13:00 +26°C° 0 mm 3 mps 696 mmHg 59%
    14:00 +26°C° 0 mm 3 mps 696 mmHg 60%
    15:00 +26°C° 0 mm 3 mps 695 mmHg 60%
    16:00 +26°C° 0 mm 2 mps 695 mmHg 64%
    17:00 +25°C° 0 mm 2 mps 695 mmHg 67%
    18:00 +25°C° 0 mm 2 mps 695 mmHg 71%
    19:00 +23°C° 0.1 mm 1 mps 695 mmHg 75%
    20:00 +21°C° 0.1 mm 1 mps 696 mmHg 79%
    21:00 +19°C° 0.1 mm 1 mps 696 mmHg 84%
    22:00 +18°C° 0 mm 1 mps 696 mmHg 85%
    23:00 +18°C° 0 mm 1 mps 696 mmHg 86%
    Show more